Regional Weather Roundup
Issued by NWS

Home | Current Version | Previous Version | Graphics & Text | Print | Product List | Glossary On
Versions: 1 2 3 4 5 6 7 8 9 10 11 12 13 14 15 16 17 18 19 20 21 22 23 24 25 26 27
000
ASUS45 KBOU 181810
RWRCO

WEATHER ROUNDUP FOR COLORADO
NATIONAL WEATHER SERVICE DENVER/BOULDER CO
1100 AM MST SAT NOV 18 2017

NOTE: "FAIR" INDICATES FEW OR NO CLOUDS BELOW 12000 FEET WITH NO
SIGNIFICANT WEATHER AND/OR OBSTRUCTIONS TO VISIBILITY.

COZ001>005-013-030-031-181900-
...NORTHWEST COLORADO...

CITY           SKY/WX    TMP DP  RH WIND       PRES   REMARKS
CRAIG          FAIR      21  16  81 CALM      30.44S
HAYDEN         FAIR      28  15  58 E3        30.44S
MEEKER         FAIR      23  15  71 MISG      30.44R
RABBIT EARS PA   N/A    N/A N/A N/A W8        30.30S
STEAMBOAT SPGS FAIR      26  14  59 SE5       30.41F WCI  21
WALDEN         FAIR      21  10  63 S14       30.35F WCI   8
$$

COZ006>008-011-181900-
...WEST CENTRAL VALLEYS...

CITY           SKY/WX    TMP DP  RH WIND       PRES   REMARKS
GRAND JUNCTION FAIR      38  21  50 SE9       30.47R
MONTROSE       FAIR      33  19  56 W5        30.47F WCI  29
EAGLE          FAIR      34  14  43 CALM      30.46F
RIFLE          FAIR      29  20  69 CALM      30.47F
DELTA          FAIR      37  17  44 CALM      30.48R
NUCLA          FAIR      34  18  51 NW5       30.46S WCI  30
$$

COZ017>023-064>068-181900-
...SOUTHWEST COLORADO...

CITY           SKY/WX    TMP DP  RH WIND       PRES   REMARKS
DURANGO        FAIR      35  15  44 CALM      30.36R
CORTEZ         FAIR      38  15  39 SE3       30.39R
PAGOSA SPRINGS FAIR      33  11  40 CALM      30.36R
TELLURIDE      NOT AVBL
WOLF CREEK PAS FAIR      23  -9  23 NW3       30.38R
$$

COZ009-010-012-014-032>034-037-058>063-181900-
...CENTRAL COLORADO...

CITY           SKY/WX    TMP DP  RH WIND       PRES   REMARKS
ASPEN          FAIR      25  12  58 VRB3      30.40R
BUENA VISTA    FAIR      30   8  39 S6        30.30R WCI  24
COPPER MTN     FAIR      14   0  52 CALM      30.29R
BERTHOUD PASS  CLOUDY     1  -9  60 N35       30.17F WCI -25
COTTONWOOD PAS FAIR      30  12  47 SE9       30.27R WCI  22
GUNNISON       FAIR      22  13  68 SE3       30.41S
KREMMLING      FAIR      34  12  40 S8        30.41F WCI  27
LEADVILLE      FAIR      18   6  59 N9        30.30R WCI   7
MONARCH PASS   PTSUNNY    9   5  85 SW25G33   30.35F WCI -13
SALIDA         FAIR      32  10  39 N5        30.38F WCI  27
SUNLIGHT       FAIR      12   1  62 MISG      30.38F
WILKERSON PASS FAIR      23  -6  28 NW12G22   30.26R WCI  12
$$

COZ069>075-181900-
...SAN LUIS VALLEY/SANGRE DE CRISTO MOUNTAINS...

CITY           SKY/WX    TMP DP  RH WIND       PRES   REMARKS
ALAMOSA        FAIR      32  10  40 SW7       30.34R WCI  26
DEL NORTE      FAIR      33   9  36 E7        30.33S WCI  27
LA VETA PASS   FAIR      27   1  33 SW30G36     N/A  WCI  10
SAGUACHE       FAIR      32   9  37 NW14      30.34S WCI  22
$$

COZ035-036-038>040-181900-
...NORTHERN COLORADO FRONT RANGE...

CITY           SKY/WX    TMP DP  RH WIND       PRES   REMARKS
DENVER INTL AP FAIR      38  18  44 S10       30.23S
DMNS CITY PARK   N/A     41   8  25 SE8G16    30.23S
AURORA         MOSUNNY   36  20  51 S12       30.24S
FRONT RANGE AP SUNNY     39  19  45 S9        30.25S
ERIE MUNI ARPT FAIR      45   2  17 W5        30.27S
BOULDER MUN AP FAIR      43   9  24 CALM      30.21R
CENTENNIAL     FAIR      36  17  46 S12       30.23S
BROOMFIELD     SUNNY     45   3  18 S6        30.22S
FORT COLLINS   FAIR      40  15  36 S6        30.24R
LONGMONT       FAIR      46  12  25 CALM      30.24R
$$

COZ041-046-047-076>085-087-088-181900-
...PIKES PEAK/PALMER DIVIDE AND SOUTHERN FOOTHILLS...

CITY           SKY/WX    TMP DP  RH WIND       PRES   REMARKS
COLO. SPRINGS  FAIR      37  12  35 S7        30.28R
A. F. ACADEMY  FAIR      35  19  52 S10       30.25S WCI  27
SCHRIEVER AFB  FAIR      38   3  23 CALM      30.27S
CHEYENNE MTN   FAIR      32  12  42 SE13      30.19R WCI  23
ELLICOTT       NOT AVBL
FALCON         FAIR      34   7  32 W3        30.26F
FORT CARSON    FAIR      39  11  31 SE9       30.26S
LIMON          FAIR      36  17  46 N7        30.27S
MONUMENT HILL  FAIR      30  10  43 S7        30.25S WCI  23
CANON CITY     FAIR      45  10  24 W9        30.27S
WALSENBURG     FAIR      37  23  56 CALM      30.27S
TRINIDAD       FAIR      37  22  54 CALM      30.30R
$$

COZ042>045-048>051-090-091-181900-
...NORTHEAST COLORADO...

CITY           SKY/WX    TMP DP  RH WIND       PRES   REMARKS
GREELEY ARPT   FAIR      42  16  34 S8        30.26R
AKRON          FAIR      40  13  33 N26       30.23F
BURLINGTON     FAIR      42  18  37 N22G36    30.25R
WRAY           NOT AVBL
YUMA           FAIR      39  18  41 NW21      30.25S
STERLING       FAIR      43  16  33 NW29G35   30.25S
HOLYOKE        FAIR      45  18  33 NW24G31   30.23F
FORT MORGAN    FAIR      43   8  24 NW15G23   30.25S
$$

COZ086-089-092>099-181900-
...SOUTHEAST COLORADO...

CITY           SKY/WX    TMP DP  RH WIND       PRES   REMARKS
PUEBLO         FAIR      43  19  38 CALM      30.29F
LA JUNTA       FAIR      47  14  26 N16G25    30.30S
LAMAR          FAIR      48  17  29 N20       30.27R
SPRINGFIELD      N/A     45  18  34 N22G32    30.27R
$$




USA.gov is the U.S. government's official web portal to all federal, state and local government web resources and services.